Location: Unspecified
(0.0000°N, 0.0000°E)
Time: 01:52:08
(UTC+00:00)

ISS - Visible Passes

Search period start: 01 July 2015 00:00
Search period end: 11 July 2015 00:00
Orbit: 398 x 403 km, 51.6° (Epoch: 30 June)

Date Brightness Start Highest point End Pass type
(mag) Time Alt. Az. Time Alt. Az. Time Alt. Az.
03 Jul -0.8 04:45:31 11° SSE 04:47:30 17° SE 04:49:47 10° E visible
04 Jul -2.6 05:27:26 11° WSW 05:30:18 36° NW 05:33:19 10° NNE visible
05 Jul -3.2 04:36:42 63° SE 04:36:51 65° SE 04:40:04 10° NE visible
06 Jul 0.3 03:45:55 10° ENE 03:45:55 10° ENE 03:45:57 10° ENE visible
06 Jul -1.0 05:18:37 10° WNW 05:19:40 11° NW 05:20:32 10° NW visible
07 Jul -1.2 04:27:40 19° N 04:27:40 19° N 04:28:58 10° N visible
